Theta_e
320 315 319 320 321 323 323 325 327 327 327 327 329 328 327 327 327 326 327 328 327 327 325 325 325 324 325 325 322 321 326 327 326 327 330 330 330 328 327 327 327 325 325 324
316 316 318 321 322 324 324 324 324 325 327 327 328 328 327 327 327 327 327 327 327 326 325 324 324 325 325 325 322 324 328 329 328 326 329 330 329 328 328 327 328 328 325 326
315 318 319 322 322 323 325 325 324 325 327 327 327 326 328 328 327 327 327 327 327 326 325 325 325 325 326 326 322 327 328 329 323 326 329 328 328 327 328 327 327 328 324 324
315 317 320 322 322 323 324 325 325 326 327 327 327 325 327 327 325 325 326 326 326 325 325 325 325 326 327 326 325 326 329 327 328 327 324 327 327 328 328 327 327 325 323 323
316 316 318 320 323 323 324 325 325 327 327 326 325 324 325 326 326 325 322 327 326 326 326 325 325 326 328 325 324 328 327 326 328 328 330 331 330 328 328 327 326 327 324 324
317 318 317 318 320 324 325 325 326 326 324 325 326 325 325 326 326 325 323 326 327 327 326 326 326 328 328 325 324 326 327 326 327 331 330 331 329 326 326 325 326 327 326 325
318 317 318 319 320 321 325 323 325 325 322 324 326 327 326 325 326 323 325 328 328 328 327 326 327 328 327 325 323 324 328 327 326 330 329 330 329 325 324 325 325 327 326 325
319 318 318 318 319 321 323 323 325 327 327 325 326 326 326 326 324 325 328 328 329 328 327 327 328 328 326 325 322 323 327 326 326 327 329 329 329 325 325 324 326 327 326 325
318 319 319 319 319 321 322 324 323 324 325 325 326 328 327 324 323 323 329 329 329 328 327 328 328 328 325 325 321 322 326 327 326 326 327 329 330 328 327 324 324 326 324 323
319 319 320 320 320 320 322 325 325 321 324 325 327 328 329 324 323 324 330 328 329 328 328 328 328 327 325 325 322 323 325 326 325 326 328 329 329 329 329 327 324 325 324 325
319 322 323 320 320 320 322 325 322 320 320 323 325 327 325 324 326 329 330 329 328 328 327 328 328 326 325 325 324 323 326 325 324 326 327 329 330 331 329 326 324 324 325 325
319 321 322 325 322 322 324 325 322 323 325 324 326 326 327 328 328 328 331 330 328 327 327 328 327 326 325 324 324 323 326 324 324 325 326 329 330 331 328 326 326 325 326 326
320 320 327 323 323 323 326 325 324 322 324 326 328 327 326 327 331 332 331 331 329 327 328 328 327 327 326 323 325 324 326 324 322 324 325 329 331 330 327 328 326 326 325 327
322 320 321 328 325 325 327 326 324 324 326 327 328 327 328 327 328 330 330 330 328 327 327 328 327 327 325 323 324 324 325 324 320 323 324 329 329 329 329 329 328 326 327 327
322 321 325 323 325 327 327 327 326 325 325 327 326 327 327 325 324 330 330 329 328 327 327 328 327 328 325 323 323 323 324 324 320 321 321 327 328 328 328 330 328 325 327 328
318 322 322 327 326 326 327 327 326 326 325 325 326 326 326 326 327 330 330 329 328 328 327 328 327 328 324 323 323 323 324 323 319 319 319 322 330 330 328 327 329 328 327 329
318 327 323 324 326 326 328 327 326 326 325 325 324 324 327 327 327 330 329 329 328 328 327 328 327 328 326 322 323 323 324 323 319 319 319 319 329 330 328 325 324 328 327 325
317 322 324 323 325 330 326 327 327 326 325 324 324 325 326 326 330 331 331 330 329 328 328 328 328 328 327 322 323 323 324 324 319 319 318 320 323 330 330 327 325 325 326 325
317 322 329 324 325 330 328 327 326 325 325 324 324 326 326 328 330 331 332 332 331 329 329 328 328 328 327 323 323 323 324 324 320 319 319 320 321 324 330 329 327 325 325 325
321 325 328 324 327 330 328 326 325 326 326 326 325 324 326 326 324 324 330 331 332 331 329 329 328 329 328 325 323 324 324 325 322 320 321 319 320 323 326 328 327 326 326 325
325 326 329 328 327 329 328 327 326 327 325 327 327 327 327 324 326 328 328 331 331 331 331 329 329 329 328 326 323 324 324 325 323 321 322 320 318 323 324 327 328 328 323 325
325 326 327 324 328 330 328 326 325 322 329 330 330 330 328 327 327 327 328 331 331 331 331 330 329 329 329 327 325 324 324 325 325 321 322 322 318 320 324 325 327 327 325 325
323 320 322 324 329 324 323 325 331 328 329 328 329 330 327 328 328 327 330 332 331 331 332 331 330 329 329 328 327 324 324 325 325 322 322 322 320 317 320 323 325 325 324 330
313 313 319 320 324 317 322 320 320 327 329 329 329 330 327 326 326 327 331 329 332 331 333 332 331 330 330 329 329 328 324 324 325 323 323 322 321 318 319 322 322 323 322 327
312 312 313 317 316 317 319 316 316 326 327 327 329 329 326 326 326 326 333 333 332 332 333 334 333 331 330 330 330 329 326 324 326 324 324 322 322 321 320 320 321 322 320 317
311 312 313 316 312 314 313 312 313 320 325 326 327 328 329 326 326 327 327 331 332 331 333 333 333 332 331 331 331 329 328 325 326 324 324 323 322 321 321 320 323 323 321 318
Wind_Speed
19 7 18 21 20 13 14 14 19 23 21 22 5 20 10 15 18 14 18 18 18 17 30 28 25 23 18 13 10 8 6 5 5 2 6 12 16 15 13 10 9 9 9 9
12 24 19 18 15 16 17 19 24 23 21 10 17 18 9 8 7 17 23 26 21 25 31 27 26 23 18 13 11 8 7 4 7 3 5 11 17 16 12 10 9 10 9 8
23 8 19 18 18 18 20 20 21 20 22 18 5 7 4 4 12 23 31 32 19 28 34 31 29 24 20 14 11 9 6 8 4 1 3 7 11 12 6 7 8 8 4 6
19 18 18 23 22 22 21 20 23 23 17 8 2 5 4 6 9 9 14 23 26 29 30 31 30 26 20 14 11 9 10 6 4 3 6 9 12 15 13 7 8 4 1 6
21 25 25 23 24 25 22 18 21 22 16 5 3 3 4 6 9 17 8 28 30 34 32 33 31 24 17 13 12 12 10 4 6 3 9 11 13 14 10 2 4 4 2 6
23 19 21 29 24 26 24 16 18 13 5 2 6 7 6 7 8 5 7 21 35 34 33 32 26 21 16 15 15 13 8 5 2 1 6 8 13 11 8 5 4 6 1 7
21 28 26 22 23 23 19 12 7 3 1 6 5 4 9 10 9 7 8 17 31 32 32 31 28 23 19 18 15 12 9 6 3 3 4 6 8 8 7 6 4 5 4 7
15 15 30 24 28 23 16 14 6 8 4 7 7 9 17 12 12 20 23 26 29 32 33 31 27 24 20 18 16 11 9 6 6 5 1 4 7 5 9 8 7 3 4 9
18 18 14 28 22 21 21 10 12 5 2 2 5 8 5 7 9 9 19 29 29 31 32 30 26 24 21 18 16 12 10 7 6 4 3 1 7 5 6 6 10 8 8 11
11 7 22 21 20 23 23 7 6 2 7 6 6 6 4 9 10 7 13 20 28 31 30 29 28 23 20 18 14 12 9 9 8 2 7 3 4 6 8 7 8 8 11 8
20 6 10 21 22 25 12 5 4 7 6 5 3 7 8 10 9 15 15 28 32 33 31 30 28 23 20 18 14 14 12 9 9 7 7 5 4 4 7 9 8 8 10 9
28 6 12 17 17 22 9 8 8 8 6 5 5 6 6 11 11 10 20 28 31 33 31 31 28 25 20 18 14 13 13 12 9 7 10 7 5 2 7 8 9 5 6 10
24 18 3 13 9 17 16 14 8 7 6 9 5 5 5 9 11 23 22 30 31 30 30 30 29 26 21 19 17 12 15 13 9 12 9 10 6 5 9 11 11 10 9 13
27 11 20 9 10 16 13 20 16 8 6 6 9 7 4 8 11 14 23 32 34 33 32 32 31 27 23 20 19 15 15 14 12 14 8 12 6 9 12 14 13 15 15 15
15 25 12 24 22 10 24 22 20 16 8 12 7 6 14 12 11 19 32 33 34 33 32 33 32 29 25 22 21 18 14 17 15 15 9 15 11 15 12 10 17 18 18 18
12 18 20 10 20 18 23 23 20 19 10 8 10 9 9 12 24 19 32 33 31 35 35 34 32 30 28 25 23 21 16 19 17 16 12 15 17 12 14 11 14 11 16 20
7 4 15 16 10 11 13 26 24 21 10 13 14 6 7 7 12 24 30 33 35 38 39 35 35 32 30 28 24 24 19 22 17 17 13 11 21 16 16 16 14 11 11 13
12 9 8 12 9 12 9 17 20 20 16 10 10 13 10 7 13 39 40 40 39 39 40 38 37 33 30 28 25 24 22 23 19 18 15 12 21 18 17 18 16 14 13 11
16 7 4 8 17 4 2 13 21 10 10 12 10 14 13 24 18 21 43 38 39 41 40 40 38 35 32 30 27 26 25 24 20 21 19 16 20 19 19 18 18 18 14 9
12 12 3 3 7 12 5 8 11 7 7 10 11 10 9 15 6 5 28 35 35 37 37 40 39 37 35 32 30 30 28 26 22 22 23 17 18 20 20 19 15 13 19 14
3 2 7 2 5 3 1 7 8 13 9 8 20 14 12 7 8 19 19 32 36 36 36 36 38 38 36 34 32 32 31 29 23 19 22 18 19 22 17 19 16 11 16 20
6 6 1 2 6 3 5 13 2 8 7 10 16 23 25 19 16 11 11 35 38 35 36 39 40 39 36 35 33 33 34 29 24 22 23 22 19 21 20 20 18 14 14 19
2 7 4 4 2 12 34 30 28 20 16 10 4 23 29 22 17 15 21 36 39 37 36 38 39 40 38 36 33 34 31 30 27 24 26 24 20 22 21 22 20 18 16 20
10 10 3 9 12 24 22 41 49 42 16 5 2 25 29 24 20 15 23 25 38 37 37 38 41 41 39 37 33 28 32 32 30 27 28 26 25 24 22 22 21 20 18 24
2 7 9 6 15 24 20 42 46 42 38 27 3 19 27 25 26 24 28 33 34 31 36 35 38 40 37 37 34 32 33 34 33 30 28 31 27 26 24 23 22 18 17 22
5 5 2 4 20 5 22 40 46 40 37 31 30 6 9 26 25 23 22 35 29 23 24 33 33 38 36 35 35 34 33 36 36 34 32 34 31 29 24 24 23 17 16 15
Wind_Direction
202 212 229 223 231 228 242 248 249 254 257 250 273 271 217 210 213 229 247 269 276 216 187 184 198 201 209 213 218 239 246 276 283 313 327 332 344 333 311 318 325 323 293 254
222 223 221 232 232 242 228 249 261 274 278 265 214 245 236 206 208 239 249 258 258 174 167 185 192 197 209 205 208 222 232 244 284 276 307 316 335 333 314 314 308 315 300 250
216 223 216 228 230 239 239 232 250 258 275 284 289 320 296 235 234 256 256 252 181 175 173 182 190 194 200 200 197 205 213 228 280 146 318 319 332 350 335 315 333 323 283 188
234 219 221 214 228 226 239 223 236 249 258 253 101 276 302 301 289 280 265 151 164 174 182 187 190 190 197 195 192 201 203 241 262 301 321 350 8 348 346 315 336 356 112 154
210 208 214 227 216 229 241 224 230 240 249 225 275 291 253 277 283 286 171 161 172 176 186 189 188 186 188 186 194 187 216 233 236 313 355 4 347 351 357 350 6 27 130 162
223 231 213 230 232 225 231 232 240 243 196 263 212 182 263 235 240 198 169 174 175 175 180 182 179 179 179 183 194 197 201 214 250 119 350 340 1 11 38 69 38 22 160 160
220 223 236 237 230 237 222 218 243 314 344 228 216 278 236 260 230 163 130 144 165 170 171 171 174 174 173 183 195 195 188 229 167 164 308 340 5 25 39 31 37 27 90 146
208 226 215 219 228 231 225 198 176 200 168 250 243 238 249 220 162 117 138 143 155 162 168 171 173 172 176 185 195 201 183 188 150 169 14 344 15 42 41 42 44 40 99 136
195 228 183 219 223 220 240 202 182 139 212 248 238 276 224 158 127 127 130 138 149 160 165 166 170 175 179 189 196 187 182 190 158 200 109 50 19 56 43 38 35 69 99 136
249 228 230 211 219 241 211 173 137 76 194 263 291 306 225 151 172 160 135 138 152 160 164 167 172 175 181 191 191 173 180 179 179 170 118 133 48 49 35 37 32 91 100 110
215 219 234 215 208 215 217 173 123 131 151 179 233 268 207 175 161 145 150 152 158 164 165 169 171 175 182 190 190 178 182 184 183 158 148 135 104 57 35 55 68 104 104 90
209 203 239 232 213 202 189 159 150 173 227 225 178 272 140 141 152 133 147 156 163 166 167 170 171 174 180 189 196 187 182 182 183 169 141 133 145 115 86 80 72 90 126 115
196 224 253 242 273 196 183 179 147 140 138 212 168 249 195 138 126 136 140 156 164 163 167 172 174 177 186 190 195 189 177 185 174 177 152 138 162 118 104 90 74 75 130 138
177 196 215 222 209 188 172 182 188 153 178 182 214 237 195 147 143 147 153 160 162 168 173 176 177 179 187 191 196 192 177 187 172 184 163 150 155 124 106 101 89 82 107 133
190 203 195 226 249 203 184 181 186 202 172 186 220 229 180 179 175 163 162 160 164 170 176 181 181 181 187 190 193 196 179 185 176 186 168 153 139 125 119 124 98 97 98 118
323 207 200 223 230 243 190 187 190 208 186 181 175 228 187 213 189 142 159 163 167 174 180 184 185 185 187 191 191 194 184 188 179 190 176 163 155 149 135 124 124 113 107 118
284 299 183 214 235 233 235 189 193 206 204 179 199 180 255 175 192 156 160 166 173 179 182 187 187 190 190 192 191 194 188 189 181 191 179 164 156 160 148 140 137 155 142 120
258 311 205 195 204 234 222 195 198 201 200 203 168 184 214 212 201 162 167 174 180 181 185 189 189 191 193 193 193 193 190 193 181 190 189 173 162 170 169 163 156 150 152 147
221 231 279 172 203 311 236 199 192 189 215 193 180 185 192 220 145 172 176 180 182 184 188 192 194 190 190 192 190 191 191 195 185 191 196 182 176 182 174 176 177 171 145 150
202 205 161 159 147 205 221 250 174 116 205 187 161 181 162 179 169 217 189 190 183 181 186 191 191 190 190 192 190 190 192 197 193 190 200 189 181 186 179 192 190 185 188 167
250 166 199 148 106 356 336 278 166 181 218 180 176 179 164 158 169 195 203 177 174 176 182 189 188 192 193 191 190 191 193 200 197 189 201 193 187 194 186 193 200 199 183 176
333 306 152 96 84 79 349 295 240 199 109 110 165 170 169 176 187 204 228 174 169 169 177 185 186 193 194 194 193 194 196 200 199 192 200 196 187 193 192 199 205 210 190 179
15 356 320 352 37 2 14 2 345 170 129 126 144 179 175 161 169 170 156 169 170 172 177 184 190 192 193 196 199 198 199 195 197 194 202 199 189 194 201 203 210 212 203 184
323 354 357 321 351 1 20 350 353 3 15 92 187 190 177 176 180 182 170 179 174 171 177 184 189 191 193 197 203 208 198 194 196 197 206 202 193 195 199 209 219 221 214 198
299 318 310 288 6 350 348 343 344 343 359 13 103 175 172 181 184 193 167 153 163 173 178 182 189 192 196 200 206 206 201 194 197 196 210 204 204 202 203 215 223 230 229 212
219 235 353 338 323 302 309 325 336 341 342 359 4 300 172 188 185 194 190 177 169 166 172 184 192 193 194 202 204 205 202 199 197 198 208 205 205 204 211 213 212 225 227 206